[[{"header":{"parameterUnit":"m.s-1","parameterCategory":1,"la1":30.2991,"la2":30.254,"lo1":-89.0895,"lo2":-89.0444,"dy":0.0017,"dx":0.0017,"nx":28,"ny":28,"refTime":"2025-12-19T03:00:00:Z","depth":0,"parameterNumber":2,"parameterNumberName":"U-component_of_WINDS"},"data":[0,0,0,0,0,0,0,0,0,0,0,0,0,0,0,0,0,0,0,0,0,0,0,0,0,0,0,0,0,0,0,0,0,0,0,0,0,0,0,0,0,0,0,0,0,0,0,0,0,0,0,0,0,0,0,0,0,0,-1.7351,-1.7351,0,-1.741,-1.7411,-1.7411,-1.7447,-1.7447,-1.7447,-1.7447,-1.7507,-1.7508,-1.7509,0,0,0,0,0,0,0,0,0,0,0,0,0,-1.7265,-1.7266,-1.7351,-1.7351,-1.7352,-1.741,-1.7411,-1.7411,-1.7447,-1.7447,-1.7447,-1.7447,-1.7506,-1.7508,-1.751,0,0,0,0,0,0,0,0,0,0,0,0,0,-1.7311,-1.7267,-1.735,-1.7377,-1.738,-1.741,-1.7411,-1.7412,-1.7447,-1.7447,-1.7447,-1.7448,-1.7506,-1.7508,-1.751,-1.7518,0,0,-1.7516,-1.7517,0,0,0,0,0,0,0,0,-1.7308,-1.7314,-1.7372,-1.7375,-1.7378,-1.7421,-1.7402,-1.7447,-1.7447,-1.7421,-1.7447,-1.7448,-1.7478,-1.7482,-1.7493,-1.7521,-1.7523,-1.7517,-1.7518,-1.7519,-1.7519,0,0,0,0,0,0,0,-1.7305,-1.7312,-1.7374,-1.7373,-1.7377,-1.7384,-1.7391,-1.7411,-1.7447,-1.7423,-1.7426,-1.7433,-1.748,-1.7491,-1.7495,-1.7524,-1.7516,-1.7518,-1.752,-1.7521,-1.7559,-1.7559,0,0,0,0,0,0,-1.7298,-1.7309,-1.7372,-1.7376,-1.7343,-1.7386,-1.7393,-1.7407,-1.7447,-1.7454,-1.7433,-1.7434,-1.7487,-1.7492,-1.7497,-1.7507,-1.7519,-1.7521,-1.7522,-1.7559,-1.7559,-1.7558,0,0,0,0,0,0,-1.7296,-1.7303,-1.737,-1.7343,-1.7352,-1.7387,-1.7402,-1.7408,-1.7419,-1.7454,-1.7461,-1.7437,-1.7487,-1.7494,-1.7512,-1.751,-1.7522,-1.7524,-1.7559,-1.7559,-1.7559,-1.7529,0,0,0,0,0,0,-1.7293,-1.7302,-1.7307,-1.7343,-1.7353,-1.7385,-1.7402,-1.7409,-1.7423,-1.7426,-1.746,-1.7466,-1.7488,-1.7509,-1.7514,-1.7513,-1.7525,-1.756,-1.7559,-1.7559,-1.7531,-1.7528,-1.7526,0,0,0,0,0,-1.729,-1.7296,-1.7307,-1.7314,-1.736,-1.7385,-1.7391,-1.7416,-1.7423,-1.7427,-1.7449,-1.7465,-1.7509,-1.751,-1.7517,-1.7516,-1.756,-1.7559,-1.7559,-1.7532,-1.7528,-1.7526,0,0,0,0,0,0,-1.7259,-1.7302,-1.7314,-1.7332,-1.7354,-1.7391,-1.7397,-1.7412,-1.7433,-1.7434,-1.7464,-1.7472,-1.7486,-1.7503,-1.7504,-1.7525,-1.7536,-1.7537,-1.7513,-1.7511,-1.7508,-1.7504,-1.7527,0,0,0,0,0,-1.7255,-1.7272,-1.7308,-1.7321,-1.7331,-1.7362,-1.7374,-1.7391,-1.7415,-1.7425,-1.7448,-1.747,-1.7489,-1.7501,-1.752,-1.7533,-1.754,-1.7536,-1.7533,-1.7531,-1.7531,-1.7537,-1.7535,-1.7557,-1.7557,-1.7557,0,0,-1.7245,-1.7271,-1.728,-1.7315,-1.7334,-1.735,-1.737,-1.7387,-1.7398,-1.7427,-1.7446,-1.7463,-1.749,-1.7505,-1.7513,-1.7519,-1.7527,-1.753,-1.7528,-1.753,-1.7536,-1.7534,-1.7532,-1.7556,-1.7556,-1.7556,0,0,-1.7236,-1.7258,-1.727,-1.7288,-1.7317,-1.7337,-1.734,-1.7373,-1.7386,-1.7405,-1.7426,-1.744,-1.7472,-1.749,-1.7503,-1.7497,-1.7512,-1.7503,-1.749,-1.7495,-1.7493,-1.7492,-1.7489,-1.7487,-1.7503,-1.7503,-1.7503,0,-1.7221,-1.7247,-1.7274,-1.7289,-1.7303,-1.7329,-1.734,-1.7357,-1.739,-1.7399,-1.7406,-1.7445,-1.7465,-1.7483,-1.7482,-1.7492,-1.7495,-1.7499,-1.7492,-1.749,-1.749,-1.7487,-1.7485,-1.7501,-1.7501,-1.7501,-1.7502,0,-1.7226,-1.7243,-1.7249,-1.728,-1.7295,-1.7308,-1.7335,-1.7347,-1.7362,-1.738,-1.7398,-1.7422,-1.7446,-1.7452,-1.7467,-1.7471,-1.7474,-1.7486,-1.7498,-1.7486,-1.7483,-1.7482,-1.7499,-1.75,-1.75,-1.75,0,0,-1.7202,-1.7245,-1.7247,-1.726,-1.7293,-1.7306,-1.7319,-1.7342,-1.735,-1.7372,-1.7383,-1.7408,-1.7418,-1.7433,-1.745,-1.7455,-1.7447,-1.7466,-1.7467,-1.746,-1.7451,-1.7441,-1.744,-1.7457,-1.7457,-1.7457,-1.7448,0,-1.7197,-1.7222,-1.7245,-1.7262,-1.7277,-1.7301,-1.7312,-1.7332,-1.7349,-1.7363,-1.7382,-1.7399,-1.7412,-1.7421,-1.7427,-1.7446,-1.7445,-1.7448,-1.7466,-1.7466,-1.7458,-1.7439,-1.7429,-1.742,-1.7447,-1.7447,-1.7447,0,-1.7195,-1.7215,-1.7233,-1.7261,-1.7268,-1.7278,-1.7299,-1.7313,-1.7336,-1.7348,-1.7363,-1.7381,-1.7394,-1.7404,-1.7422,-1.7423,-1.7432,-1.7442,-1.7443,-1.7445,-1.7456,-1.7439,-1.7418,-1.7416,-1.7446,-1.7446,-1.7447,0,-1.7174,-1.7205,-1.7219,-1.723,-1.7263,-1.7269,-1.7283,-1.7306,-1.7318,-1.7336,-1.7343,-1.7363,-1.7374,-1.7388,-1.741,-1.7416,-1.7425,-1.7438,-1.7434,-1.7433,-1.7435,-1.7434,-1.7413,-1.7442,-1.7442,-1.7442,-1.7442,0,-1.7166,-1.7176,-1.7209,-1.7218,-1.7229,-1.7254,-1.7263,-1.728,-1.7299,-1.731,-1.7332,-1.7342,-1.737,-1.7383,-1.74,-1.7411,-1.7416,-1.7425,-1.743,-1.7423,-1.7422,-1.7429,-1.743,-1.7441,-1.7441,-1.7441,-1.7442,0,-1.7145,-1.7168,-1.7184,-1.7214,-1.7221,-1.7228,-1.7253,-1.7261,-1.7278,-1.7292,-1.7297,-1.7324,-1.734,-1.7363,-1.7386,-1.7397,-1.7405,-1.7413,-1.7398,-1.74,-1.7395,-1.7394,-1.7377,-1.7375,-1.7405,-1.7405,-1.7405,0,-1.7138,-1.7146,-1.7176,-1.7184,-1.7198,-1.7212,-1.7223,-1.7247,-1.7258,-1.7282,-1.7287,-1.7305,-1.732,-1.7344,-1.7365,-1.7382,-1.739,-1.7382,-1.7393,-1.7385,-1.7388,-1.7387,-1.7387,-1.738,-1.7379,-1.7379,-1.7379,0,-1.7124,-1.7134,-1.7149,-1.7168,-1.718,-1.7196,-1.7213,-1.7219,-1.7246,-1.7257,-1.7273,-1.7284,-1.7307,-1.7323,-1.7343,-1.7356,-1.7371,-1.7375,-1.7375,-1.7368,-1.7358,-1.7362,-1.739,-1.7376,-1.7376,-1.7376,-1.7376,-1.7376,-1.7109,-1.7116,-1.7137,-1.7153,-1.7167,-1.7182,-1.719,-1.7208,-1.7222,-1.7242,-1.7255,-1.7269,-1.7289,-1.7317,-1.7329,-1.734,-1.7347,-1.7347,-1.7347,-1.7347,-1.7343,-1.7357,-1.7344,-1.7344,-1.7345,-1.7345,-1.7345,0,-1.7094,-1.7108,-1.7122,-1.7144,-1.7156,-1.7168,-1.7187,-1.7195,-1.7208,-1.7225,-1.7239,-1.7256,-1.7271,-1.7293,-1.7309,-1.7314,-1.7321,-1.7317,-1.7317,-1.7319,-1.7337,-1.7335,-1.7311,-1.7311,-1.7311,-1.7311,-1.7311,-1.7311,-1.7088,-1.71,-1.7112,-1.713,-1.7144,-1.7158,-1.7167,-1.718,-1.7193,-1.7211,-1.7223,-1.7237,-1.7255,-1.7273,-1.7286,-1.7292,-1.7297,-1.729,-1.7298,-1.7315,-1.7318,-1.7321,-1.7319,-1.7292,-1.7292,-1.7279,-1.7279,-1.7279]},{"header":{"parameterUnit":"m.s-1","parameterCategory":1,"la1":30.2991,"la2":30.254,"lo1":-89.0895,"lo2":-89.0444,"dy":0.0017,"dx":0.0017,"nx":28,"ny":28,"refTime":"2025-12-19T03:00:00:Z","depth":0,"parameterNumber":3,"parameterNumberName":"V-component_of_WINDS"},"data":[0,0,0,0,0,0,0,0,0,0,0,0,0,0,0,0,0,0,0,0,0,0,0,0,0,0,0,0,0,0,0,0,0,0,0,0,0,0,0,0,0,0,0,0,0,0,0,0,0,0,0,0,0,0,0,0,0,0,3.1936,3.1937,0,3.2026,3.2027,3.2028,3.207,3.207,3.207,3.207,3.2158,3.2161,3.2163,0,0,0,0,0,0,0,0,0,0,0,0,0,3.1801,3.1803,3.1936,3.1937,3.1938,3.2026,3.2027,3.2029,3.207,3.207,3.207,3.207,3.2158,3.216,3.2163,0,0,0,0,0,0,0,0,0,0,0,0,0,3.1872,3.1804,3.1936,3.197,3.1974,3.2026,3.2027,3.2029,3.207,3.207,3.207,3.207,3.2157,3.216,3.2164,3.2187,0,0,3.2175,3.2176,0,0,0,0,0,0,0,0,3.1868,3.1877,3.1964,3.1968,3.1972,3.2037,3.2012,3.2082,3.207,3.2033,3.207,3.207,3.2118,3.2125,3.2142,3.2192,3.2195,3.2175,3.2177,3.2179,3.218,0,0,0,0,0,0,0,3.1863,3.1873,3.1972,3.1965,3.197,3.1981,3.1991,3.2026,3.2075,3.2037,3.204,3.205,3.212,3.2138,3.2144,3.2197,3.2175,3.2178,3.218,3.2182,3.2277,3.2278,0,0,0,0,0,0,3.1853,3.1869,3.1969,3.1974,3.1919,3.1983,3.1995,3.2016,3.2075,3.2084,3.205,3.2052,3.2132,3.214,3.2147,3.2183,3.2179,3.2182,3.2184,3.2277,3.2277,3.2278,0,0,0,0,0,0,3.185,3.1861,3.1965,3.1923,3.1937,3.1986,3.201,3.2018,3.2036,3.2085,3.2094,3.2059,3.2132,3.2142,3.2179,3.2187,3.2184,3.2187,3.2276,3.2277,3.2277,3.2252,0,0,0,0,0,0,3.1846,3.186,3.1869,3.1923,3.1939,3.1995,3.201,3.202,3.2043,3.2046,3.2096,3.2104,3.2133,3.2173,3.2182,3.2191,3.219,3.2276,3.2277,3.2277,3.2253,3.2252,3.2251,0,0,0,0,0,3.1841,3.1856,3.1869,3.1881,3.1951,3.1995,3.2005,3.2038,3.2043,3.2053,3.2086,3.2103,3.2184,3.2177,3.2187,3.2197,3.2276,3.2276,3.2277,3.2253,3.2252,3.2251,0,0,0,0,0,0,3.1799,3.1863,3.1879,3.1912,3.1948,3.2002,3.2016,3.2035,3.207,3.2071,3.211,3.2122,3.2156,3.218,3.2171,3.2227,3.2232,3.2235,3.221,3.2209,3.2208,3.2202,3.2193,0,0,0,0,0,3.1794,3.1825,3.1879,3.1903,3.1921,3.1966,3.1986,3.2009,3.2048,3.2063,3.2098,3.2134,3.2169,3.219,3.2224,3.2257,3.227,3.2269,3.2268,3.2268,3.227,3.2294,3.2296,3.228,3.228,3.228,0,0,3.1783,3.1823,3.1839,3.1896,3.1927,3.1959,3.1978,3.2009,3.2034,3.2067,3.2106,3.2133,3.2176,3.2212,3.223,3.2234,3.2278,3.2269,3.2268,3.2271,3.2295,3.2297,3.2298,3.2281,3.2281,3.2281,0,0,3.1781,3.1812,3.1839,3.1871,3.1918,3.1949,3.1955,3.2008,3.2028,3.2068,3.2095,3.2125,3.2182,3.2213,3.2237,3.2253,3.2271,3.2262,3.2259,3.2282,3.2283,3.2285,3.2294,3.2296,3.2265,3.2264,3.2264,0,3.1761,3.1811,3.1849,3.1881,3.1907,3.1942,3.197,3.1999,3.2054,3.2072,3.2076,3.2153,3.2184,3.223,3.2235,3.2252,3.2262,3.2257,3.228,3.2282,3.2284,3.2293,3.2296,3.2263,3.2264,3.2264,3.2264,0,3.1786,3.1821,3.1836,3.1893,3.1921,3.195,3.1994,3.2018,3.204,3.207,3.2113,3.2152,3.2198,3.221,3.223,3.2261,3.2263,3.2273,3.2279,3.2284,3.2293,3.2297,3.2262,3.2262,3.2263,3.2263,0,0,3.1757,3.1839,3.1844,3.1873,3.1931,3.1958,3.1991,3.2038,3.2059,3.2097,3.2128,3.2178,3.219,3.2217,3.2241,3.2261,3.2277,3.227,3.2272,3.2272,3.2318,3.2311,3.2315,3.229,3.229,3.2291,3.2315,0,3.1764,3.1826,3.1864,3.1911,3.1946,3.1982,3.2012,3.2051,3.2081,3.2116,3.2149,3.2186,3.2196,3.2214,3.2235,3.227,3.2287,3.2269,3.2319,3.2321,3.2309,3.2319,3.2311,3.2332,3.2319,3.232,3.232,0,3.178,3.1822,3.1874,3.1934,3.1949,3.1975,3.2024,3.2055,3.2102,3.2123,3.2156,3.2183,3.2221,3.2224,3.2279,3.2266,3.2289,3.231,3.2312,3.2319,3.2321,3.2328,3.2339,3.2343,3.2325,3.2325,3.2325,0,3.1758,3.1827,3.1868,3.1891,3.196,3.1979,3.2008,3.2055,3.2083,3.2125,3.2144,3.2189,3.2214,3.2249,3.2288,3.2286,3.2341,3.2346,3.2361,3.236,3.237,3.237,3.2387,3.2382,3.2382,3.2382,3.2382,0,3.1764,3.1794,3.186,3.1885,3.1922,3.1966,3.2001,3.2034,3.2077,3.211,3.2143,3.2173,3.2222,3.2259,3.2289,3.2333,3.2343,3.2362,3.237,3.236,3.2358,3.2377,3.2377,3.2383,3.2383,3.2383,3.2382,0,3.1744,3.1789,3.1837,3.1901,3.1918,3.1943,3.1998,3.2025,3.2059,3.2101,3.2114,3.2167,3.2213,3.2255,3.2315,3.2336,3.238,3.2389,3.2365,3.237,3.2384,3.2383,3.2415,3.2423,3.241,3.241,3.241,0,3.1745,3.1771,3.1839,3.1866,3.1896,3.1936,3.1966,3.2012,3.2041,3.21,3.2121,3.217,3.2212,3.2284,3.2328,3.2375,3.2387,3.2395,3.2394,3.2385,3.2391,3.2389,3.2394,3.2394,3.2394,3.2394,3.2394,0,3.1744,3.1767,3.1809,3.1861,3.1896,3.1938,3.1981,3.2001,3.2055,3.2087,3.2136,3.2169,3.2234,3.2283,3.2336,3.2367,3.2391,3.2395,3.2401,3.2392,3.2378,3.2389,3.2366,3.2393,3.2394,3.2394,3.2394,3.2394,3.1737,3.1763,3.1818,3.1865,3.1903,3.1945,3.1975,3.2015,3.2057,3.2115,3.2139,3.219,3.2241,3.2316,3.2347,3.2388,3.2393,3.2401,3.2404,3.2406,3.2406,3.2371,3.2398,3.2398,3.2398,3.2398,3.2398,0,3.174,3.1778,3.1821,3.1884,3.1922,3.1943,3.1994,3.2024,3.2069,3.2116,3.2158,3.2217,3.2266,3.2316,3.2369,3.2392,3.2405,3.2405,3.2404,3.2412,3.2397,3.2387,3.2394,3.2394,3.2394,3.2394,3.2394,3.2394,3.1746,3.1793,3.1823,3.1891,3.1929,3.1981,3.2009,3.2048,3.2086,3.2151,3.2194,3.2227,3.2276,3.2333,3.2381,3.2394,3.2413,3.2411,3.2427,3.2412,3.2412,3.2412,3.2404,3.2414,3.2414,3.2439,3.244,3.244]}]]